Observer details:
046 Klet.  Observers J. Ticha, M. Tichy, Z. Moravec, P. Jelinek.  0.57-m f/5.2
    reflector + CCD.
104 San Marcello Pistoiese.  Observers L. Tesi, A. Boattini, M. Tombelli.
    Measurers G. Forti, L. Tesi, A. Boattini, M. Tombelli.  0.40-m f/5
    reflector + CCD.
106 Crni Vrh.  Observer H. Mikuz.  0.36-m f/6.7 Schmidt-Cassegrain + CCD.
108 Montelupo.  Observers M. Tombelli, A. Boattini, L. Tesi, D. Guidetti,
    G. Forti, E. Masotti.  Measurers M. Tombelli, A. Boattini, L. Tesi,
    S. Bartolini, G. Forti.  0.30-m f/5.7 Schmidt-Cassegrain + CCD.
113 Volkssternwarte Drebach, Schoenbrunn.  Observers G. Lehmann, J. Kandler,
    T. Lehmann.  0.50-m f/4.0 reflector + CCD.
118 Modra.  Observers L. Kornos, P. Koleny.  0.6-m f/5.5 reflector + CCD.
151 Eschenberg Observatory, Winterthur.  Observer M. Griesser.  0.40-m f/5.8
    Hypergraph.
163 Roeser Observatory, Luxembourg.  Observer M. Dawson.  0.457-m f/4.5
    reflector + CCD.
557 Ondrejov.  Observers P. Pravec, P. Kusnirak.  0.65-m f/3.6 reflector + CCD.
587 Sormano.  Observers M. Cavagna, M. Banfi.  0.5-m reflector + CCD.
595 Farra d'Isonzo.  Observer E. Pettarin.  0.40-m f/4.5 reflector + CCD.
611 Starkenburg.  Observer M. Busch.  0.45-m f/4.4 reflector + CCD.
658 National Research Council of Canada.  Observer D. D. Balam.  1.82-m
    Plaskett reflector + CCD.
670 Camarillo.  Observer J. E. Rogers.  0.30-m f/6.7 Helin Telescope + CCD.
704 Lincoln Laboratory ETS, New Mexico.  Observers M. Blythe, F. Shelly,
    M. Bezpalko, M. Elowitz, R. Huber, L. Manguso.  Measurers J. Stuart,
    R. Sayer, J. B. Evans, H. Viggh.  1.0-m f/2.15 reflector + CCD.
734 Farpoint Observatory.  Observer G. Hug.  0.30-m Schmidt-Cassegrain + CCD.
859 Wykrota Observatory-CEAMIG.  Observers C. Jacques, L. Duczmal, J. Duczmal,
    C. Magno.  0.3-m f/3.3 Schmidt-Cassegrain + CCD.
860 Valinhos.  Observer P. R. Holvorcem.  0.36-m f/3.6 Schmidt-Cassegrain
    + CCD.
916 Oakley Observatory, Terre Haute.  Observer C. Wolfe.  0.36-m /f9
    Schmidt-Cassegrain + CCD.  Parallax 272.6836, 0.77287, +0.63248.

Orbital elements:
2000 QU7
Epoch 2000 Aug. 24.0 TT = JDT 2451780.5                 Williams
M 340.05257              (2000.0)            P               Q
n   0.28301111     Peri.   87.11428     +0.36555089     -0.92147474
a   2.2975611      Node   339.83596     +0.62792882     +0.34831857
e   0.6507655      Incl.   22.40124     +0.68707928     +0.17192579
P   3.48           H   18.1           G   0.15
From 106 observations 2000 Aug. 24-27.

Ephemeris:
2000 QU7                 a,e,i = 2.30, 0.65, 22                  q = 0.8024
Date    TT    R. A. (2000) Decl.     Delta      r     Elong.  Phase     V
2000 08 24    00 27.45   +02 38.4    0.322    1.285   143.8    27.7    17.4
2000 08 29    00 29.70   +09 43.2    0.266    1.237   144.8    28.0    16.9
2000 09 03    00 31.41   +19 59.8    0.217    1.189   142.7    30.9    16.5
2000 09 08    00 32.59   +34 53.2    0.180    1.141   134.7    38.8    16.2
2000 09 13    00 33.21   +54 44.9    0.160    1.095   119.8    52.9    16.3
2000 09 18    00 32.8    +76 21.2    0.162    1.049   101.5    69.8    16.7
2000 09 23    12 39      +85 16.5    0.184    1.006    85.4    84.0    17.4
2000 09 28    12 35.6    +71 48.0    0.219    0.965    73.9    93.5    18.1
2000 10 03    12 35.09   +62 09.7    0.262    0.926    66.2    98.9    18.6
2000 10 08    12 34.91   +54 58.6    0.308    0.892    61.0   101.4    19.0
2000 10 13    12 35.06   +49 16.5    0.356    0.862    57.7   101.9    19.3
2000 10 18    12 35.71   +44 27.6    0.405    0.837    55.6   100.9    19.4
2000 10 23    12 36.99   +40 10.9    0.454    0.819    54.4    98.8    19.5

2000 11 02    12 41.61   +32 30.4    0.551    0.802    53.9    92.4    19.6
2000 11 12    12 48.88   +25 28.8    0.642    0.816    55.1    84.6    19.7
2000 11 22    12 58.12   +18 56.7    0.721    0.857    57.7    77.0    19.7
2000 12 02    13 08.16   +12 55.5    0.784    0.919    61.3    70.2    19.9
2000 12 12    13 17.86   +07 25.9    0.831    0.998    66.0    64.4    20.0
2000 12 22    13 26.26   +02 26.3    0.861    1.086    71.8    59.4    20.1
2001 01 01    13 32.45   -02 06.0    0.875    1.179    78.6    54.8    20.2
2001 01 11    13 35.52   -06 14.3    0.877    1.276    86.4    50.3    20.2
2001 01 21    13 34.59   -10 00.7    0.869    1.373    95.4    45.5    20.2
2001 01 31    13 28.71   -13 24.2    0.857    1.470   105.7    40.2    20.2
2001 02 10    13 17.21   -16 19.9    0.846    1.565   117.1    34.2    20.1
2001 02 20    13 00.05   -18 38.3    0.844    1.659   129.4    27.4    20.1
2001 03 02    12 38.33   -20 07.4    0.859    1.750   142.1    20.4    20.0
2001 03 12    12 14.61   -20 40.9    0.896    1.839   153.4    14.0    20.0
2001 03 22    11 52.05   -20 24.0    0.959    1.926   159.9    10.2    20.1
2001 04 01    11 33.28   -19 32.5    1.050    2.010   157.5    10.9    20.4
2001 04 11    11 19.61   -18 26.6    1.165    2.091   149.5    14.1    20.8
2001 04 21    11 11.09   -17 21.9    1.303    2.170   140.0    17.3    21.3
2001 05 01    11 07.13   -16 27.9    1.458    2.247   130.6    19.9    21.7
2001 05 11    11 06.91   -15 48.9    1.626    2.321   121.7    21.7    22.0

Gareth V. Williams           (C) Copyright 2000 MPC           M.P.E.C. 2000-Q30

Read MPEC 2000-Q29 Read MPEC 2000-Q31


Our Web policy. Index to the CBAT/MPC/ICQ pages.

